[[{"header":{"parameterUnit":"m.s-1","parameterCategory":2,"la1":30.2991,"la2":30.254,"lo1":-89.0895,"lo2":-89.0444,"dy":0.0017,"dx":0.0017,"nx":28,"ny":28,"refTime":"2024-02-02T03:00:00:Z","depth":"0","parameterNumber":2,"parameterNumberName":"U-component_of_CURRENTS"},"data":[0,0,0,0,0,0,0,0,0,0,0,0,0,0,0,0,0,0,0,0,0,0,0,0,0,0,0,0,0,0,0,0,0,0,0,0,0,0,0,0,0,0,0,0,0,0,0,0,0,0,0,0,0,0,0,0,0,0,-0.3285,-0.3285,0,-0.3208,-0.3207,-0.3205,-0.3247,-0.325,-0.3253,-0.3255,-0.3099,-0.3093,-0.3086,0,0,0,0,0,0,0,0,0,0,0,0,0,-0.3374,-0.3373,-0.3285,-0.3285,-0.3284,-0.3208,-0.3207,-0.3205,-0.3247,-0.325,-0.3253,-0.3256,-0.3101,-0.3094,-0.3086,0,0,0,0,0,0,0,0,0,0,0,0,0,-0.3315,-0.3372,-0.3285,-0.33,-0.3301,-0.3209,-0.3207,-0.3205,-0.3246,-0.325,-0.3254,-0.3258,-0.3104,-0.3094,-0.3085,-0.2946,0,0,-0.3054,-0.305,0,0,0,0,0,0,0,0,-0.3319,-0.3311,-0.3298,-0.3299,-0.33,-0.3246,-0.3182,-0.3116,-0.3245,-0.3261,-0.3255,-0.326,-0.3141,-0.3129,-0.3099,-0.2938,-0.2932,-0.3054,-0.3048,-0.3043,-0.3041,0,0,0,0,0,0,0,-0.3323,-0.3314,-0.3249,-0.3297,-0.3298,-0.3279,-0.3275,-0.3169,-0.3175,-0.326,-0.3264,-0.3263,-0.3141,-0.3109,-0.3096,-0.2929,-0.3054,-0.3045,-0.3039,-0.3035,-0.2707,-0.2704,0,0,0,0,0,0,-0.3343,-0.3318,-0.3252,-0.3247,-0.3325,-0.3275,-0.327,-0.3255,-0.3178,-0.3172,-0.326,-0.3266,-0.3124,-0.3107,-0.309,-0.2981,-0.3043,-0.3034,-0.3029,-0.271,-0.2706,-0.2703,0,0,0,0,0,0,-0.3345,-0.3337,-0.3255,-0.3287,-0.3276,-0.327,-0.3252,-0.3251,-0.3242,-0.318,-0.3172,-0.3255,-0.3126,-0.3104,-0.3002,-0.2973,-0.303,-0.3021,-0.2713,-0.2709,-0.2705,-0.2723,0,0,0,0,0,0,-0.3348,-0.3338,-0.3324,-0.3287,-0.3275,-0.3196,-0.3249,-0.3247,-0.3236,-0.3243,-0.3171,-0.316,-0.3127,-0.3017,-0.2992,-0.2961,-0.3013,-0.2717,-0.2711,-0.2706,-0.2726,-0.272,-0.2715,0,0,0,0,0,-0.3351,-0.3303,-0.3324,-0.3316,-0.3259,-0.3194,-0.3183,-0.319,-0.3233,-0.3201,-0.3165,-0.3164,-0.2967,-0.3005,-0.2977,-0.2943,-0.2719,-0.2713,-0.2707,-0.2728,-0.2721,-0.2715,0,0,0,0,0,0,-0.3324,-0.3302,-0.3324,-0.3273,-0.3243,-0.3204,-0.317,-0.3187,-0.3131,-0.3144,-0.3108,-0.309,-0.2994,-0.2948,-0.2992,-0.2831,-0.2848,-0.2836,-0.2874,-0.2866,-0.2861,-0.2874,-0.3005,0,0,0,0,0,-0.3316,-0.3277,-0.3262,-0.3215,-0.3205,-0.3193,-0.317,-0.3176,-0.3132,-0.3116,-0.3067,-0.3007,-0.2934,-0.2892,-0.2809,-0.27,-0.268,-0.2663,-0.2658,-0.2654,-0.2642,-0.2615,-0.2608,-0.2683,-0.2683,-0.2683,0,0,-0.3285,-0.3273,-0.3248,-0.3208,-0.3187,-0.3146,-0.3186,-0.3144,-0.3111,-0.3097,-0.3016,-0.2973,-0.2898,-0.2797,-0.275,-0.2764,-0.2611,-0.2645,-0.2643,-0.2633,-0.2608,-0.2602,-0.2596,-0.2678,-0.2679,-0.268,0,0,-0.3201,-0.3204,-0.315,-0.3129,-0.3108,-0.31,-0.3095,-0.3059,-0.3048,-0.2958,-0.2958,-0.2899,-0.2765,-0.2725,-0.2686,-0.2584,-0.2582,-0.2564,-0.2546,-0.2521,-0.2516,-0.2512,-0.2452,-0.2442,-0.2566,-0.2566,-0.2566,0,-0.3175,-0.3127,-0.3119,-0.3075,-0.3071,-0.3085,-0.3048,-0.3007,-0.2942,-0.2932,-0.2931,-0.2789,-0.2728,-0.2644,-0.2617,-0.2574,-0.2557,-0.259,-0.252,-0.2515,-0.251,-0.245,-0.2439,-0.2566,-0.2566,-0.2566,-0.2566,0,-0.3051,-0.304,-0.3004,-0.2973,-0.2949,-0.2916,-0.2897,-0.2865,-0.2868,-0.285,-0.2771,-0.269,-0.2628,-0.2593,-0.2567,-0.2502,-0.2497,-0.2522,-0.2554,-0.2505,-0.2443,-0.2431,-0.2566,-0.2566,-0.2566,-0.2566,0,0,-0.2931,-0.293,-0.2919,-0.2942,-0.2918,-0.2892,-0.2837,-0.2811,-0.2802,-0.273,-0.2709,-0.2579,-0.2588,-0.2541,-0.2514,-0.2478,-0.2415,-0.2488,-0.2486,-0.2457,-0.2341,-0.2208,-0.2182,-0.2453,-0.2452,-0.245,-0.2305,0,-0.2858,-0.2816,-0.2814,-0.2786,-0.2788,-0.2807,-0.276,-0.2737,-0.2718,-0.2684,-0.2639,-0.2581,-0.2553,-0.2536,-0.2496,-0.2446,-0.2389,-0.245,-0.2367,-0.2362,-0.2276,-0.2166,-0.2102,-0.1957,-0.2294,-0.2292,-0.229,0,-0.2743,-0.2752,-0.2733,-0.2781,-0.2776,-0.2742,-0.2745,-0.2705,-0.267,-0.2659,-0.2622,-0.2594,-0.2518,-0.2514,-0.2392,-0.2444,-0.2378,-0.2333,-0.2328,-0.219,-0.2207,-0.206,-0.1923,-0.191,-0.2272,-0.2274,-0.2275,0,-0.2711,-0.2704,-0.2719,-0.2722,-0.274,-0.2731,-0.2727,-0.2697,-0.2676,-0.265,-0.264,-0.2572,-0.2528,-0.2456,-0.2337,-0.238,-0.2203,-0.2261,-0.2063,-0.2053,-0.1968,-0.1952,-0.1831,-0.2155,-0.2156,-0.2156,-0.2157,0,-0.2668,-0.2674,-0.2708,-0.2714,-0.2708,-0.2723,-0.2695,-0.2691,-0.2668,-0.2628,-0.2629,-0.2565,-0.2517,-0.2412,-0.2327,-0.2125,-0.2188,-0.2013,-0.1994,-0.1964,-0.195,-0.1911,-0.1951,-0.2151,-0.2152,-0.2153,-0.2154,0,-0.2637,-0.2666,-0.2681,-0.2702,-0.27,-0.2691,-0.2674,-0.2661,-0.265,-0.26,-0.2593,-0.2551,-0.2403,-0.2306,-0.2164,-0.2079,-0.1876,-0.184,-0.1778,-0.1751,-0.1562,-0.1605,-0.1442,-0.1399,-0.1607,-0.1603,-0.1599,0,-0.2626,-0.2636,-0.2657,-0.2656,-0.2662,-0.2649,-0.2641,-0.2643,-0.2625,-0.2553,-0.2531,-0.2401,-0.2243,-0.1985,-0.1838,-0.1632,-0.1669,-0.1464,-0.1516,-0.1486,-0.1524,-0.158,-0.1564,-0.1409,-0.1404,-0.14,-0.1397,0,-0.2598,-0.2606,-0.2619,-0.2583,-0.2582,-0.2549,-0.2533,-0.2504,-0.2486,-0.2394,-0.2208,-0.2069,-0.1905,-0.1652,-0.1459,-0.1355,-0.144,-0.137,-0.1377,-0.1353,-0.1371,-0.1345,-0.1562,-0.1361,-0.1365,-0.1367,-0.1369,-0.1371,-0.2552,-0.2537,-0.2513,-0.2465,-0.2448,-0.2335,-0.2206,-0.2189,-0.2023,-0.1768,-0.1818,-0.147,-0.1461,-0.1166,-0.1105,-0.1019,-0.1114,-0.0995,-0.1045,-0.1101,-0.1061,-0.1153,-0.0913,-0.0914,-0.0915,-0.0916,-0.0917,0,-0.2404,-0.2389,-0.2377,-0.224,-0.2103,-0.2147,-0.2032,-0.1837,-0.1522,-0.137,-0.1088,-0.0779,-0.0706,-0.0752,-0.0787,-0.0741,-0.0784,-0.0732,-0.0847,-0.0844,-0.0943,-0.0935,-0.0644,-0.0644,-0.0644,-0.0644,-0.0644,-0.0644,-0.231,-0.2221,-0.219,-0.1872,-0.1779,-0.1469,-0.1328,-0.1105,-0.0906,-0.0439,-0.015,-0.0057,-0.0271,-0.0543,-0.0667,-0.0655,-0.0686,-0.0635,-0.0668,-0.0809,-0.0841,-0.0871,-0.0872,-0.0571,-0.0571,-0.0558,-0.0558,-0.0558]},{"header":{"parameterUnit":"m.s-1","parameterCategory":2,"la1":30.2991,"la2":30.254,"lo1":-89.0895,"lo2":-89.0444,"dy":0.0017,"dx":0.0017,"nx":28,"ny":28,"refTime":"2024-02-02T03:00:00:Z","depth":"0","parameterNumber":3,"parameterNumberName":"V-component_of_CURRENTS"},"data":[0,0,0,0,0,0,0,0,0,0,0,0,0,0,0,0,0,0,0,0,0,0,0,0,0,0,0,0,0,0,0,0,0,0,0,0,0,0,0,0,0,0,0,0,0,0,0,0,0,0,0,0,0,0,0,0,0,0,0.0397,0.0399,0,0.0556,0.0557,0.0559,0.0564,0.0562,0.0561,0.0559,0.0709,0.0714,0.0719,0,0,0,0,0,0,0,0,0,0,0,0,0,0.0055,0.0062,0.0397,0.0399,0.0402,0.0556,0.0557,0.0559,0.0564,0.0562,0.056,0.0559,0.0707,0.0713,0.072,0,0,0,0,0,0,0,0,0,0,0,0,0,0.0205,0.0064,0.0397,0.0425,0.0429,0.0555,0.0558,0.056,0.0565,0.0562,0.056,0.0558,0.0705,0.0713,0.0721,0.082,0,0,0.0746,0.0749,0,0,0,0,0,0,0,0,0.0196,0.0217,0.0419,0.0423,0.0428,0.0541,0.0492,0.0648,0.0565,0.051,0.0559,0.0556,0.0656,0.0668,0.0698,0.0827,0.0834,0.0747,0.0752,0.0755,0.0758,0,0,0,0,0,0,0,0.0186,0.021,0.0456,0.0421,0.0427,0.0415,0.0434,0.0521,0.0592,0.0515,0.0516,0.054,0.0657,0.069,0.0702,0.0836,0.0746,0.0754,0.0759,0.0762,0.1058,0.1061,0,0,0,0,0,0,0.018,0.0202,0.0452,0.0462,0.0308,0.0424,0.0445,0.0504,0.0591,0.0603,0.0542,0.054,0.0678,0.0692,0.0707,0.0812,0.0755,0.0763,0.0768,0.1056,0.1059,0.1062,0,0,0,0,0,0,0.0172,0.0202,0.0445,0.0334,0.0365,0.0433,0.05,0.0509,0.0543,0.0613,0.0623,0.0566,0.0676,0.0696,0.0795,0.0818,0.0767,0.0774,0.1052,0.1057,0.1061,0.1034,0,0,0,0,0,0,0.0163,0.0199,0.0236,0.0336,0.0371,0.0532,0.0503,0.0514,0.0563,0.0561,0.0638,0.0649,0.0676,0.0783,0.0804,0.0828,0.078,0.1048,0.1054,0.1059,0.1031,0.1037,0.1042,0,0,0,0,0,0.015,0.0226,0.0238,0.0268,0.0423,0.0535,0.0553,0.0587,0.0566,0.0603,0.0648,0.0646,0.0831,0.0793,0.0816,0.0844,0.1046,0.1052,0.1059,0.1028,0.1035,0.1041,0,0,0,0,0,0,0.009,0.0238,0.0251,0.0365,0.0442,0.0537,0.0582,0.0598,0.0664,0.0658,0.0696,0.0714,0.0804,0.0848,0.0804,0.095,0.0935,0.0947,0.0904,0.0912,0.0917,0.0847,0.0787,0,0,0,0,0,0.0097,0.0199,0.0307,0.0394,0.0438,0.0506,0.0552,0.058,0.0652,0.0677,0.0727,0.0789,0.0856,0.0898,0.0969,0.1066,0.1053,0.11,0.1105,0.1109,0.1072,0.1085,0.1085,0.1084,0.1084,0.1084,0,0,0.0095,0.019,0.0244,0.0388,0.0449,0.0519,0.0528,0.0614,0.065,0.0688,0.0759,0.0816,0.0888,0.0977,0.1022,0.1013,0.1111,0.1117,0.1119,0.108,0.1091,0.109,0.109,0.1088,0.1088,0.1087,0,0,0.0137,0.0229,0.0314,0.0385,0.0493,0.0542,0.0566,0.0668,0.069,0.0784,0.0801,0.0867,0.0995,0.1029,0.1065,0.1154,0.1136,0.1191,0.1163,0.1177,0.1175,0.1173,0.1167,0.1165,0.1195,0.1195,0.1195,0,0.0111,0.023,0.0348,0.0429,0.0462,0.0548,0.0592,0.0661,0.0771,0.0773,0.0805,0.0932,0.1008,0.1063,0.1096,0.1158,0.1152,0.1123,0.1175,0.1173,0.1171,0.1166,0.1164,0.1195,0.1195,0.1195,0.1195,0,0.0211,0.0279,0.0335,0.0457,0.052,0.0581,0.0673,0.0725,0.0759,0.0797,0.0862,0.0965,0.1013,0.1076,0.1118,0.115,0.1145,0.1172,0.1136,0.1168,0.1164,0.1161,0.1194,0.1194,0.1194,0.1194,0,0,0.0186,0.0361,0.0366,0.0373,0.0518,0.0559,0.0641,0.0697,0.0687,0.0811,0.0794,0.0944,0.0959,0.1001,0.1065,0.11,0.1115,0.1128,0.1129,0.1081,0.112,0.111,0.1106,0.114,0.1139,0.1139,0.1124,0,0.0189,0.0275,0.0388,0.0423,0.0446,0.0537,0.058,0.0643,0.0697,0.0723,0.0814,0.0849,0.0945,0.0955,0.101,0.1083,0.1105,0.1114,0.1132,0.1131,0.1084,0.1103,0.1117,0.1103,0.1121,0.1121,0.1121,0,0.0214,0.0256,0.0284,0.032,0.0339,0.0385,0.0395,0.0456,0.0534,0.0569,0.0629,0.0696,0.0776,0.085,0.0959,0.0955,0.1023,0.1086,0.1087,0.1071,0.1116,0.1079,0.1098,0.1179,0.1117,0.1117,0.1117,0,0.0055,0.0156,0.0143,0.0172,0.0267,0.0269,0.031,0.0383,0.0393,0.046,0.0459,0.0565,0.0609,0.0713,0.0871,0.0903,0.097,0.1032,0.1077,0.1077,0.1086,0.1087,0.1143,0.1075,0.1075,0.1075,0.1075,0,-0.0019,-0.004,0.006,0.0053,0.0008,0.0124,0.0091,0.0149,0.0213,0.024,0.0352,0.0392,0.0576,0.0659,0.08,0.092,0.0912,0.1047,0.1068,0.1083,0.1084,0.1153,0.1196,0.1074,0.1074,0.1074,0.1074,0,-0.0189,-0.0116,-0.0136,-0.007,-0.0061,-0.0095,-0.0035,-0.0045,0.0026,0.0067,0.0084,0.0237,0.0375,0.0526,0.0701,0.0815,0.0986,0.0975,0.0971,0.0991,0.1122,0.1163,0.1189,0.126,0.1021,0.1021,0.102,0,-0.0261,-0.0288,-0.0255,-0.0271,-0.0237,-0.0253,-0.025,-0.016,-0.0115,0.0007,0.004,0.0145,0.0309,0.0507,0.0692,0.0867,0.0968,0.0958,0.1036,0.1105,0.1167,0.1192,0.1253,0.1049,0.1049,0.1049,0.1048,0,-0.0418,-0.0406,-0.0422,-0.0437,-0.0442,-0.0413,-0.0362,-0.0341,-0.018,-0.0099,0.0101,0.0223,0.0378,0.0607,0.0746,0.0863,0.1016,0.0961,0.1045,0.1186,0.1203,0.1289,0.107,0.1048,0.1048,0.1048,0.1048,0.1048,-0.0543,-0.0592,-0.0585,-0.0588,-0.0574,-0.0458,-0.0372,-0.0257,-0.0108,0.0183,0.0226,0.0515,0.0614,0.0847,0.0915,0.1028,0.1046,0.1119,0.116,0.1174,0.1252,0.101,0.1006,0.1006,0.1006,0.1006,0.1006,0,-0.0653,-0.0677,-0.0714,-0.0646,-0.0551,-0.0514,-0.0349,-0.0171,0.0119,0.0345,0.0608,0.0925,0.1027,0.1088,0.1164,0.1244,0.1291,0.1276,0.1337,0.1394,0.119,0.1203,0.1227,0.1226,0.1226,0.1226,0.1226,0.1226,-0.0712,-0.0767,-0.0747,-0.0587,-0.0492,-0.0244,-0.0076,0.0171,0.0406,0.0863,0.1169,0.1354,0.1397,0.1368,0.1416,0.1428,0.1563,0.1499,0.1585,0.1467,0.1457,0.1447,0.147,0.155,0.155,0.1796,0.1799,0.18]}],[{"header":{"parameterUnit":"m.s-1","parameterCategory":2,"la1":30.2991,"la2":30.254,"lo1":-89.0895,"lo2":-89.0444,"dy":0.0017,"dx":0.0017,"nx":28,"ny":28,"refTime":"2024-02-02T03:00:00:Z","depth":"2","parameterNumber":2,"parameterNumberName":"U-component_of_CURRENTS"},"data":[0,0,0,0,0,0,0,0,0,0,0,0,0,0,0,0,0,0,0,0,0,0,0,0,0,0,0,0,0,0,0,0,0,0,0,0,0,0,0,0,0,0,0,0,0,0,0,0,0,0,0,0,0,0,0,0,0,0,-0.2288,-0.2288,0,-0.2237,-0.2236,-0.2235,-0.2226,-0.2227,-0.2228,-0.2229,-0.2434,-0.2438,-0.2442,0,0,0,0,0,0,0,0,0,0,0,0,0,-0.2189,-0.2192,-0.2288,-0.2288,-0.2288,-0.2238,-0.2236,-0.2235,-0.2226,-0.2227,-0.2229,-0.223,-0.2432,-0.2437,-0.2443,0,0,0,0,0,0,0,0,0,0,0,0,0,-0.2188,-0.2192,-0.2288,-0.2283,-0.2283,-0.2238,-0.2236,-0.2234,-0.2226,-0.2227,-0.2229,-0.2231,-0.243,-0.2437,-0.2443,-0.245,0,0,-0.2463,-0.2466,0,0,0,0,0,0,0,0,-0.2188,-0.2191,-0.2284,-0.2283,-0.2283,-0.2247,-0.2277,-0.2322,-0.2225,-0.2239,-0.2229,-0.2231,-0.2399,-0.2408,-0.238,-0.2459,-0.2468,-0.2464,-0.2468,-0.2471,-0.2473,0,0,0,0,0,0,0,-0.2189,-0.2192,-0.226,-0.2284,-0.2283,-0.222,-0.2223,-0.2282,-0.2309,-0.2238,-0.2239,-0.2245,-0.2399,-0.2373,-0.2385,-0.2471,-0.2464,-0.247,-0.2474,-0.2476,-0.2652,-0.2653,0,0,0,0,0,0,-0.2219,-0.2193,-0.2262,-0.2259,-0.2248,-0.2222,-0.2224,-0.225,-0.2302,-0.2312,-0.2244,-0.2245,-0.2361,-0.2378,-0.2393,-0.2505,-0.2471,-0.2477,-0.2481,-0.2652,-0.2652,-0.2653,0,0,0,0,0,0,-0.2217,-0.2226,-0.2264,-0.2229,-0.2231,-0.2224,-0.2252,-0.2248,-0.2271,-0.2306,-0.2319,-0.2277,-0.2363,-0.2384,-0.2479,-0.251,-0.248,-0.2486,-0.2651,-0.2652,-0.2653,-0.2667,0,0,0,0,0,0,-0.2215,-0.2226,-0.2238,-0.2233,-0.2235,-0.2278,-0.2251,-0.2247,-0.2273,-0.2276,-0.2339,-0.2355,-0.2366,-0.2469,-0.2486,-0.2519,-0.2491,-0.265,-0.2651,-0.2653,-0.2665,-0.2668,-0.2671,0,0,0,0,0,-0.2212,-0.2214,-0.2239,-0.2247,-0.2258,-0.2281,-0.2276,-0.2268,-0.2274,-0.2293,-0.233,-0.2356,-0.2489,-0.2476,-0.2495,-0.253,-0.2649,-0.2651,-0.2652,-0.2664,-0.2668,-0.267,0,0,0,0,0,0,-0.2168,-0.2214,-0.2241,-0.2258,-0.2296,-0.2284,-0.228,-0.2297,-0.233,-0.2327,-0.2379,-0.2398,-0.2489,-0.2509,-0.2493,-0.2581,-0.2569,-0.2574,-0.2571,-0.2575,-0.2577,-0.2512,-0.2496,0,0,0,0,0,-0.2172,-0.2194,-0.2242,-0.226,-0.2283,-0.2297,-0.2301,-0.2301,-0.2332,-0.2345,-0.2422,-0.2466,-0.2497,-0.254,-0.2582,-0.2646,-0.2595,-0.2675,-0.2678,-0.268,-0.2638,-0.2554,-0.2543,-0.2659,-0.2659,-0.2659,0,0,-0.2173,-0.2187,-0.221,-0.2253,-0.227,-0.2306,-0.2303,-0.2314,-0.2356,-0.2369,-0.2476,-0.2498,-0.2518,-0.2573,-0.2615,-0.2605,-0.2634,-0.2682,-0.2684,-0.2639,-0.2554,-0.2542,-0.2531,-0.266,-0.266,-0.2659,0,0,-0.2162,-0.2199,-0.2217,-0.2259,-0.2291,-0.23,-0.233,-0.2376,-0.2413,-0.2504,-0.25,-0.2522,-0.2655,-0.2618,-0.2622,-0.2666,-0.2653,-0.2719,-0.2682,-0.2602,-0.259,-0.2579,-0.2546,-0.2532,-0.2715,-0.2715,-0.2715,0,-0.2133,-0.2188,-0.2226,-0.2257,-0.229,-0.2322,-0.236,-0.2396,-0.2478,-0.2498,-0.2558,-0.2612,-0.2648,-0.2617,-0.2624,-0.2667,-0.264,-0.2671,-0.26,-0.2588,-0.2576,-0.2544,-0.2528,-0.2716,-0.2716,-0.2716,-0.2716,0,-0.2156,-0.2206,-0.222,-0.2285,-0.2328,-0.2352,-0.243,-0.2489,-0.2554,-0.2574,-0.2622,-0.2636,-0.2643,-0.2672,-0.2668,-0.2602,-0.2619,-0.2615,-0.2583,-0.2564,-0.2534,-0.2517,-0.2718,-0.2717,-0.2717,-0.2717,0,0,-0.2063,-0.2199,-0.2204,-0.2257,-0.2339,-0.2366,-0.2454,-0.2505,-0.2534,-0.2612,-0.2633,-0.2648,-0.2619,-0.2613,-0.2603,-0.2534,-0.2451,-0.2543,-0.2539,-0.2493,-0.231,-0.2232,-0.2206,-0.2442,-0.2438,-0.2435,-0.2339,0,-0.2058,-0.2122,-0.2193,-0.2276,-0.2339,-0.2406,-0.2488,-0.2535,-0.2597,-0.2639,-0.2595,-0.2608,-0.2612,-0.2595,-0.2526,-0.2472,-0.2399,-0.2479,-0.2347,-0.2343,-0.2259,-0.2179,-0.204,-0.1932,-0.2322,-0.2319,-0.2316,0,-0.2043,-0.2107,-0.2191,-0.2303,-0.2331,-0.2381,-0.2468,-0.2542,-0.258,-0.2615,-0.2578,-0.2567,-0.2469,-0.2484,-0.2334,-0.2395,-0.2336,-0.2292,-0.2288,-0.2178,-0.2228,-0.2005,-0.1885,-0.2287,-0.2289,-0.2291,-0.2293,0,-0.1959,-0.2081,-0.2144,-0.2194,-0.2342,-0.2384,-0.2442,-0.2523,-0.2569,-0.2569,-0.256,-0.2479,-0.2424,-0.233,-0.2256,-0.2288,-0.2102,-0.2137,-0.2005,-0.2003,-0.183,-0.1817,-0.1987,-0.1987,-0.1987,-0.1987,-0.1987,0,-0.1895,-0.1968,-0.2121,-0.216,-0.2227,-0.2359,-0.2411,-0.2451,-0.2517,-0.2495,-0.2516,-0.2443,-0.2376,-0.2284,-0.2224,-0.2054,-0.2068,-0.1949,-0.1937,-0.1841,-0.183,-0.2092,-0.2105,-0.1984,-0.1984,-0.1985,-0.1986,0,-0.1818,-0.1919,-0.1995,-0.2139,-0.2193,-0.2238,-0.2367,-0.2401,-0.2474,-0.2444,-0.2422,-0.2388,-0.2235,-0.2185,-0.2028,-0.1987,-0.1856,-0.1795,-0.1711,-0.1688,-0.183,-0.1846,-0.1619,-0.1614,-0.1611,-0.1608,-0.1605,0,-0.1783,-0.1838,-0.1938,-0.1964,-0.2034,-0.2147,-0.2216,-0.2344,-0.2363,-0.237,-0.2307,-0.2202,-0.2042,-0.1849,-0.1739,-0.1601,-0.1699,-0.1435,-0.1429,-0.1761,-0.1775,-0.1797,-0.1817,-0.1244,-0.1238,-0.1234,-0.123,0,-0.1724,-0.1752,-0.1785,-0.1846,-0.1907,-0.1967,-0.2056,-0.2048,-0.2159,-0.2133,-0.2006,-0.1891,-0.1725,-0.1488,-0.138,-0.1297,-0.1451,-0.1339,-0.1647,-0.1363,-0.1399,-0.1417,-0.145,-0.1192,-0.1195,-0.1198,-0.12,-0.1202,-0.1651,-0.1627,-0.1645,-0.1693,-0.1772,-0.1748,-0.1697,-0.1764,-0.1731,-0.1653,-0.1671,-0.1504,-0.1455,-0.1162,-0.1054,-0.101,-0.1109,-0.1086,-0.1102,-0.1122,-0.11,-0.1127,-0.0868,-0.087,-0.0871,-0.0873,-0.0874,0,-0.1521,-0.1509,-0.1512,-0.1508,-0.1497,-0.1601,-0.1582,-0.1505,-0.1382,-0.1366,-0.1272,-0.1074,-0.0899,-0.0879,-0.072,-0.0679,-0.0709,-0.0666,-0.0713,-0.075,-0.0783,-0.0748,-0.042,-0.0419,-0.0418,-0.0417,0,0,-0.1449,-0.1375,-0.1364,-0.1265,-0.1279,-0.1206,-0.1136,-0.1035,-0.0995,-0.0865,-0.083,-0.0887,-0.0858,-0.0668,-0.0589,-0.0477,-0.0622,-0.0448,-0.0807,-0.0899,-0.0932,-0.1008,-0.0992,0,0,0,0,0]},{"header":{"parameterUnit":"m.s-1","parameterCategory":2,"la1":30.2991,"la2":30.254,"lo1":-89.0895,"lo2":-89.0444,"dy":0.0017,"dx":0.0017,"nx":28,"ny":28,"refTime":"2024-02-02T03:00:00:Z","depth":"2","parameterNumber":3,"parameterNumberName":"V-component_of_CURRENTS"},"data":[0,0,0,0,0,0,0,0,0,0,0,0,0,0,0,0,0,0,0,0,0,0,0,0,0,0,0,0,0,0,0,0,0,0,0,0,0,0,0,0,0,0,0,0,0,0,0,0,0,0,0,0,0,0,0,0,0,0,-0.0602,-0.0602,0,-0.0631,-0.0632,-0.0632,-0.0584,-0.0582,-0.058,-0.0578,-0.0276,-0.027,-0.0264,0,0,0,0,0,0,0,0,0,0,0,0,0,-0.061,-0.061,-0.0602,-0.0602,-0.0602,-0.0631,-0.0632,-0.0632,-0.0584,-0.0582,-0.058,-0.0577,-0.0278,-0.0271,-0.0263,0,0,0,0,0,0,0,0,0,0,0,0,0,-0.0623,-0.061,-0.0602,-0.0579,-0.0577,-0.0631,-0.0632,-0.0632,-0.0585,-0.0582,-0.0579,-0.0576,-0.028,-0.0271,-0.0262,-0.0264,0,0,-0.0234,-0.023,0,0,0,0,0,0,0,0,-0.0622,-0.0623,-0.0582,-0.058,-0.0578,-0.0598,-0.0524,-0.0491,-0.0586,-0.0586,-0.0578,-0.0575,-0.0353,-0.0337,-0.0359,-0.0249,-0.0237,-0.0233,-0.0227,-0.0223,-0.0221,0,0,0,0,0,0,0,-0.0621,-0.0622,-0.0617,-0.0582,-0.058,-0.0603,-0.0601,-0.052,-0.0482,-0.0585,-0.0581,-0.058,-0.0349,-0.0369,-0.035,-0.0232,-0.0233,-0.0225,-0.0219,-0.0215,0.0144,0.0148,0,0,0,0,0,0,-0.0608,-0.0621,-0.0616,-0.0617,-0.0589,-0.0605,-0.0603,-0.0597,-0.049,-0.0472,-0.0582,-0.0577,-0.0386,-0.0362,-0.0339,-0.0152,-0.0223,-0.0215,-0.0209,0.014,0.0145,0.0149,0,0,0,0,0,0,-0.0608,-0.0607,-0.0615,-0.0617,-0.0619,-0.0606,-0.0602,-0.0599,-0.0585,-0.049,-0.0466,-0.0565,-0.0383,-0.0352,-0.0237,-0.0146,-0.021,-0.0202,0.0136,0.0142,0.0147,0.0108,0,0,0,0,0,0,-0.0608,-0.0607,-0.0615,-0.0616,-0.0618,-0.0626,-0.0604,-0.0602,-0.0589,-0.0582,-0.0468,-0.044,-0.0378,-0.0252,-0.0228,-0.0134,-0.0195,0.0131,0.0138,0.0145,0.0104,0.0112,0.0118,0,0,0,0,0,-0.0609,-0.0627,-0.0615,-0.0615,-0.0623,-0.0626,-0.063,-0.0614,-0.059,-0.0589,-0.0503,-0.0442,-0.0184,-0.0244,-0.0216,-0.0117,0.0127,0.0136,0.0145,0.0101,0.011,0.0118,0,0,0,0,0,0,-0.0644,-0.0624,-0.061,-0.0623,-0.0614,-0.0615,-0.0626,-0.0606,-0.0552,-0.0536,-0.0431,-0.0398,-0.0251,-0.0183,-0.025,0.0017,-0.0001,0.0013,-0.0043,-0.0034,-0.0027,-0.009,-0.0187,0,0,0,0,0,-0.0655,-0.066,-0.0636,-0.0652,-0.0641,-0.0629,-0.0632,-0.0621,-0.0573,-0.055,-0.0454,-0.033,-0.0203,-0.0123,-0.0021,0.0097,0.0121,0.0198,0.0205,0.021,0.0183,0.0297,0.0309,0.0179,0.0179,0.0178,0,0,-0.0677,-0.0668,-0.0672,-0.0661,-0.0655,-0.0654,-0.0623,-0.0628,-0.0595,-0.0518,-0.0424,-0.0317,-0.0169,-0.0031,0.0047,0.0044,0.0258,0.0221,0.0223,0.0194,0.0307,0.0319,0.0329,0.0185,0.0184,0.0183,0,0,-0.073,-0.0706,-0.0725,-0.0711,-0.07,-0.0683,-0.0672,-0.0641,-0.0584,-0.0506,-0.0407,-0.0266,-0.0093,0.0032,0.012,0.023,0.028,0.0308,0.0303,0.0414,0.0424,0.0432,0.0446,0.0456,0.0324,0.0324,0.0324,0,-0.076,-0.0769,-0.0734,-0.0744,-0.0726,-0.0685,-0.0686,-0.0639,-0.0567,-0.0478,-0.0466,-0.0176,-0.0063,0.0143,0.018,0.0245,0.0274,0.0247,0.0415,0.0425,0.0435,0.0447,0.0459,0.0324,0.0324,0.0324,0.0324,0,-0.082,-0.082,-0.0827,-0.0809,-0.0786,-0.0787,-0.0704,-0.0648,-0.0565,-0.0476,-0.0266,-0.0139,0.0045,0.0133,0.0179,0.0353,0.0336,0.0391,0.0369,0.0444,0.0454,0.0466,0.0322,0.0323,0.0323,0.0323,0,0,-0.0889,-0.0873,-0.0873,-0.0861,-0.0812,-0.08,-0.0717,-0.0598,-0.0501,-0.0382,-0.0236,-0.0017,0.0071,0.0174,0.0287,0.0375,0.0455,0.0397,0.0404,0.0363,0.0628,0.0487,0.0487,0.0539,0.0542,0.0545,0.0592,0,-0.094,-0.0965,-0.0932,-0.093,-0.0914,-0.0831,-0.0751,-0.0629,-0.0478,-0.0326,-0.0134,0.0041,0.0094,0.0185,0.0286,0.0423,0.0493,0.0432,0.0602,0.0605,0.0434,0.05,0.0503,0.0535,0.0605,0.0607,0.0608,0,-0.0995,-0.0993,-0.1002,-0.0944,-0.0926,-0.0916,-0.0747,-0.0665,-0.0423,-0.0295,-0.0095,0.0047,0.0225,0.0238,0.0466,0.0423,0.0507,0.0583,0.0589,0.0473,0.0489,0.0488,0.0556,0.063,0.0628,0.0626,0.0625,0,-0.1038,-0.1032,-0.1033,-0.1021,-0.0955,-0.0916,-0.0854,-0.0638,-0.0518,-0.0266,-0.0168,0.0078,0.0181,0.034,0.046,0.0492,0.0638,0.0731,0.0674,0.0663,0.0702,0.0687,0.087,0.087,0.087,0.087,0.0869,0,-0.1084,-0.1089,-0.106,-0.1066,-0.1036,-0.0951,-0.085,-0.0733,-0.0531,-0.0389,-0.016,-0.0056,0.0209,0.0324,0.0448,0.0545,0.0643,0.065,0.068,0.0684,0.0669,0.0791,0.0781,0.0871,0.0871,0.087,0.087,0,-0.1129,-0.1124,-0.1127,-0.1078,-0.1067,-0.103,-0.0914,-0.0811,-0.0625,-0.0455,-0.0391,-0.0141,0.0003,0.0188,0.0417,0.0506,0.0632,0.0637,0.055,0.0566,0.059,0.0579,0.0643,0.0639,0.0635,0.0632,0.063,0,-0.1155,-0.1167,-0.1153,-0.1158,-0.1148,-0.1087,-0.1036,-0.0869,-0.0758,-0.0528,-0.047,-0.0294,-0.0155,0.0066,0.0249,0.0423,0.0483,0.0496,0.0579,0.0551,0.0575,0.0569,0.0563,0.0623,0.062,0.0618,0.0617,0,-0.1186,-0.1189,-0.1184,-0.1198,-0.1185,-0.1138,-0.1062,-0.1009,-0.0806,-0.0689,-0.0543,-0.0426,-0.0218,-0.0012,0.0158,0.0267,0.0476,0.0455,0.0526,0.0636,0.0525,0.0549,0.0547,0.0599,0.0601,0.0602,0.0603,0.0604,-0.1195,-0.1204,-0.1206,-0.1211,-0.1207,-0.1165,-0.1107,-0.1031,-0.0909,-0.0699,-0.0645,-0.0438,-0.0245,0.0035,0.0155,0.0287,0.0321,0.0428,0.044,0.0452,0.0398,0.0283,0.0297,0.0297,0.0297,0.0297,0.0297,0,-0.1183,-0.1198,-0.1215,-0.1207,-0.1188,-0.1182,-0.1098,-0.101,-0.0905,-0.0748,-0.0609,-0.0374,-0.0172,0.0016,0.0218,0.0319,0.0398,0.0334,0.0459,0.0473,0.0486,0.044,0.0348,0.0348,0.0349,0.0349,0,0,-0.1179,-0.1187,-0.1195,-0.1169,-0.1168,-0.1102,-0.1047,-0.0951,-0.0821,-0.0653,-0.0496,-0.0335,-0.0123,0.0035,0.0162,0.0272,0.0351,0.0275,0.0222,0.0366,0.0379,0.0517,0.0455,0,0,0,0,0]}],[{"header":{"parameterUnit":"m.s-1","parameterCategory":2,"la1":30.2991,"la2":30.254,"lo1":-89.0895,"lo2":-89.0444,"dy":0.0017,"dx":0.0017,"nx":28,"ny":28,"refTime":"2024-02-02T03:00:00:Z","depth":"4","parameterNumber":2,"parameterNumberName":"U-component_of_CURRENTS"},"data":[0,0,0,0,0,0,0,0,0,0,0,0,0,0,0,0,0,0,0,0,0,0,0,0,0,0,0,0,0,0,0,0,0,0,0,0,0,0,0,0,0,0,0,0,0,0,0,0,0,0,0,0,0,0,0,0,0,0,-0.1061,-0.1061,0,-0.1077,-0.1077,-0.1078,-0.1119,-0.1119,-0.112,-0.1121,-0.11,-0.1099,-0.1098,0,0,0,0,0,0,0,0,0,0,0,0,0,-0.1056,-0.1056,-0.1061,-0.1061,-0.1061,-0.1077,-0.1077,-0.1078,-0.1119,-0.112,-0.112,-0.1121,-0.11,-0.1099,-0.1098,0,0,0,0,0,0,0,0,0,0,0,0,0,-0.1067,-0.1056,-0.1061,-0.1081,-0.1082,-0.1076,-0.1077,-0.1078,-0.1119,-0.112,-0.112,-0.1121,-0.1101,-0.1099,-0.1098,-0.1071,0,0,-0.1093,-0.1092,0,0,0,0,0,0,0,0,-0.1066,-0.1067,-0.1078,-0.1079,-0.1081,-0.1094,-0.1068,-0.1072,-0.1118,-0.1109,-0.1121,-0.1122,-0.1092,-0.1091,-0.1097,-0.107,-0.1069,-0.1093,-0.1092,-0.1091,-0.1091,0,0,0,0,0,0,0,-0.1065,-0.1067,-0.1071,-0.1078,-0.108,-0.1085,-0.1088,-0.1069,-0.1097,-0.1109,-0.1112,-0.1108,-0.1093,-0.1099,-0.1097,-0.1068,-0.1093,-0.1091,-0.109,-0.109,-0.1144,-0.1146,0,0,0,0,0,0,-0.1056,-0.1066,-0.107,-0.1071,-0.1072,-0.1084,-0.1087,-0.1092,-0.1098,-0.1099,-0.1107,-0.1109,-0.1101,-0.1099,-0.1096,-0.1141,-0.1091,-0.1089,-0.1089,-0.1142,-0.1144,-0.1147,0,0,0,0,0,0,-0.1056,-0.1056,-0.1069,-0.1066,-0.1067,-0.1083,-0.1087,-0.1091,-0.1107,-0.1096,-0.1097,-0.112,-0.1102,-0.1099,-0.1115,-0.1137,-0.1089,-0.1087,-0.1139,-0.1142,-0.1146,-0.118,0,0,0,0,0,0,-0.1056,-0.1057,-0.1068,-0.1065,-0.1067,-0.1076,-0.1086,-0.1091,-0.1101,-0.1105,-0.1106,-0.1105,-0.1102,-0.1117,-0.1113,-0.1134,-0.1086,-0.1136,-0.114,-0.1145,-0.1176,-0.1185,-0.1192,0,0,0,0,0,-0.1056,-0.1057,-0.1069,-0.107,-0.1079,-0.1076,-0.1078,-0.1094,-0.1101,-0.1111,-0.1129,-0.1106,-0.1144,-0.1117,-0.1112,-0.1133,-0.1133,-0.1139,-0.1144,-0.1172,-0.1183,-0.1192,0,0,0,0,0,0,-0.106,-0.1061,-0.1074,-0.1077,-0.1084,-0.1082,-0.1093,-0.1095,-0.1116,-0.113,-0.112,-0.112,-0.1154,-0.114,-0.1111,-0.117,-0.1141,-0.1145,-0.1164,-0.1174,-0.1182,-0.1173,-0.1085,0,0,0,0,0,-0.1065,-0.1065,-0.1072,-0.1073,-0.1083,-0.109,-0.1094,-0.1105,-0.1114,-0.1125,-0.1124,-0.1141,-0.117,-0.1168,-0.1188,-0.1192,-0.1173,-0.1212,-0.122,-0.1226,-0.1221,-0.1213,-0.1218,-0.1165,-0.1165,-0.1165,0,0,-0.1061,-0.1064,-0.1063,-0.1074,-0.1086,-0.1093,-0.1097,-0.1108,-0.1115,-0.1116,-0.1134,-0.1166,-0.1184,-0.1218,-0.1229,-0.1203,-0.1238,-0.1233,-0.1238,-0.1229,-0.1219,-0.1223,-0.1227,-0.1169,-0.1168,-0.1167,0,0,-0.1042,-0.1067,-0.1063,-0.1073,-0.109,-0.1102,-0.1105,-0.1116,-0.1132,-0.1145,-0.1177,-0.1214,-0.1224,-0.1253,-0.1266,-0.132,-0.1291,-0.1346,-0.1356,-0.1348,-0.1351,-0.1354,-0.1351,-0.1352,-0.1335,-0.1335,-0.1335,0,-0.1038,-0.1041,-0.1061,-0.1065,-0.1075,-0.1104,-0.111,-0.1125,-0.1138,-0.1153,-0.1156,-0.1228,-0.1236,-0.1291,-0.1331,-0.1332,-0.1333,-0.1311,-0.1354,-0.1356,-0.1357,-0.1354,-0.1355,-0.1337,-0.1337,-0.1337,-0.1336,0,-0.1017,-0.1029,-0.103,-0.105,-0.1069,-0.1078,-0.1106,-0.1131,-0.1152,-0.1163,-0.1222,-0.1255,-0.1293,-0.1321,-0.1339,-0.1385,-0.1385,-0.1371,-0.1317,-0.1364,-0.1359,-0.1359,-0.134,-0.134,-0.1339,-0.1338,0,0,-0.0965,-0.1007,-0.1007,-0.1024,-0.1066,-0.1075,-0.1109,-0.1143,-0.1162,-0.1197,-0.1214,-0.1295,-0.1324,-0.1346,-0.1387,-0.1391,-0.1413,-0.1395,-0.1394,-0.1371,-0.1411,-0.1303,-0.1293,-0.1411,-0.1411,-0.1411,-0.1406,0,-0.0942,-0.0947,-0.0982,-0.0999,-0.1009,-0.1067,-0.1095,-0.1135,-0.1165,-0.1189,-0.1243,-0.1283,-0.133,-0.1363,-0.1381,-0.1408,-0.1416,-0.1416,-0.1388,-0.1387,-0.1266,-0.129,-0.1412,-0.1406,-0.1406,-0.1406,-0.1406,0,-0.0904,-0.0915,-0.093,-0.0984,-0.0999,-0.1025,-0.1091,-0.1121,-0.1176,-0.1198,-0.1253,-0.1285,-0.134,-0.135,-0.1401,-0.1406,-0.1418,-0.1426,-0.1425,-0.1306,-0.1279,-0.135,-0.1407,-0.1407,-0.1407,-0.1407,-0.1407,0,-0.0846,-0.0878,-0.0896,-0.091,-0.0977,-0.1013,-0.1063,-0.1127,-0.1153,-0.1208,-0.1219,-0.1285,-0.1307,-0.1341,-0.1375,-0.1392,-0.1397,-0.1404,-0.132,-0.1313,-0.1395,-0.1392,-0.1419,-0.1419,-0.1419,-0.1419,-0.1419,0,-0.0798,-0.0807,-0.0876,-0.0883,-0.092,-0.0986,-0.1036,-0.1089,-0.1144,-0.117,-0.123,-0.1246,-0.1306,-0.1319,-0.1357,-0.1331,-0.1378,-0.1318,-0.1298,-0.1415,-0.1415,-0.1395,-0.1393,-0.1419,-0.1419,-0.1419,-0.1419,0,-0.0728,-0.077,-0.0796,-0.0871,-0.0896,-0.0931,-0.1021,-0.1045,-0.1113,-0.1142,-0.1158,-0.1205,-0.1221,-0.1263,-0.1291,-0.1279,-0.1278,-0.1259,-0.1381,-0.1369,-0.121,-0.1211,-0.1159,-0.1155,-0.1152,-0.1149,-0.1146,0,-0.0689,-0.0691,-0.0777,-0.0802,-0.0843,-0.0901,-0.0938,-0.1022,-0.1041,-0.1116,-0.1111,-0.1134,-0.1164,-0.1117,-0.1169,-0.1188,-0.1192,-0.118,-0.1204,-0.1195,-0.1181,-0.1186,-0.1191,-0.1141,-0.114,-0.1139,-0.1138,0,-0.0616,-0.0663,-0.0699,-0.0741,-0.0787,-0.0827,-0.0883,-0.0886,-0.0979,-0.1035,-0.1038,-0.1043,-0.1038,-0.1052,-0.1051,-0.1081,-0.1178,-0.1145,-0.1153,-0.1176,-0.1172,-0.1163,-0.1172,-0.1126,-0.1128,-0.1129,-0.113,0,-0.0575,-0.0587,-0.0643,-0.0677,-0.0724,-0.074,-0.0786,-0.0814,-0.0846,-0.0934,-0.093,-0.0978,-0.1024,-0.0995,-0.101,-0.1001,-0.1006,-0.0997,-0.1013,-0.1027,-0.0984,-0.096,-0.0822,0,0,0,0,0,-0.0528,-0.0535,-0.0562,-0.0602,-0.0645,-0.0667,-0.0737,-0.0783,-0.0864,-0.0842,-0.0887,-0.0892,-0.0894,-0.0913,-0.0879,-0.0946,-0.1003,-0.0901,-0.1,-0.1061,-0.1075,-0.1036,0,0,0,0,0,0,-0.0499,-0.0524,-0.0538,-0.0526,-0.0529,-0.0561,-0.0606,-0.0666,-0.0664,-0.0753,-0.0756,-0.0824,-0.0833,-0.089,-0.0851,-0.0858,-0.0902,-0.0935,-0.0932,-0.1053,-0.1066,-0.1077,-0.1042,0,0,0,0,0]},{"header":{"parameterUnit":"m.s-1","parameterCategory":2,"la1":30.2991,"la2":30.254,"lo1":-89.0895,"lo2":-89.0444,"dy":0.0017,"dx":0.0017,"nx":28,"ny":28,"refTime":"2024-02-02T03:00:00:Z","depth":"4","parameterNumber":3,"parameterNumberName":"V-component_of_CURRENTS"},"data":[0,0,0,0,0,0,0,0,0,0,0,0,0,0,0,0,0,0,0,0,0,0,0,0,0,0,0,0,0,0,0,0,0,0,0,0,0,0,0,0,0,0,0,0,0,0,0,0,0,0,0,0,0,0,0,0,0,0,-0.0564,-0.0564,0,-0.0599,-0.06,-0.06,-0.056,-0.0559,-0.0558,-0.0556,-0.0567,-0.0569,-0.057,0,0,0,0,0,0,0,0,0,0,0,0,0,-0.0495,-0.0496,-0.0564,-0.0565,-0.0565,-0.0599,-0.06,-0.06,-0.0561,-0.0559,-0.0557,-0.0556,-0.0567,-0.0568,-0.057,0,0,0,0,0,0,0,0,0,0,0,0,0,-0.0525,-0.0496,-0.0564,-0.0551,-0.055,-0.0599,-0.06,-0.06,-0.0561,-0.0559,-0.0557,-0.0555,-0.0566,-0.0568,-0.0571,-0.0626,0,0,-0.0578,-0.0579,0,0,0,0,0,0,0,0,-0.0524,-0.0528,-0.0552,-0.0552,-0.0551,-0.0575,-0.0579,-0.0608,-0.0562,-0.0555,-0.0556,-0.0554,-0.057,-0.0572,-0.0581,-0.0626,-0.0627,-0.0578,-0.0579,-0.058,-0.0581,0,0,0,0,0,0,0,-0.0522,-0.0526,-0.0576,-0.0553,-0.0552,-0.0554,-0.0556,-0.0585,-0.0572,-0.0556,-0.0553,-0.056,-0.0569,-0.0579,-0.0581,-0.0627,-0.0578,-0.058,-0.0581,-0.0582,-0.068,-0.0681,0,0,0,0,0,0,-0.0521,-0.0524,-0.0575,-0.0578,-0.0534,-0.0557,-0.0559,-0.0568,-0.0572,-0.0571,-0.0562,-0.0558,-0.0576,-0.0578,-0.0581,-0.0627,-0.058,-0.0582,-0.0584,-0.0678,-0.068,-0.0681,0,0,0,0,0,0,-0.052,-0.0526,-0.0574,-0.0553,-0.0559,-0.056,-0.0571,-0.057,-0.0579,-0.0578,-0.0575,-0.0572,-0.0575,-0.0578,-0.06,-0.0628,-0.0583,-0.0586,-0.0677,-0.0679,-0.068,-0.0732,0,0,0,0,0,0,-0.0518,-0.0525,-0.0537,-0.0553,-0.056,-0.0605,-0.0573,-0.0572,-0.0587,-0.0583,-0.0587,-0.0585,-0.0573,-0.0597,-0.0602,-0.063,-0.0587,-0.0675,-0.0678,-0.068,-0.0728,-0.0735,-0.0741,0,0,0,0,0,-0.0515,-0.0538,-0.0538,-0.0544,-0.0575,-0.0607,-0.0611,-0.0604,-0.059,-0.0603,-0.0597,-0.0585,-0.0614,-0.06,-0.0606,-0.0635,-0.0674,-0.0677,-0.068,-0.0726,-0.0734,-0.074,0,0,0,0,0,0,-0.0518,-0.0537,-0.0536,-0.0565,-0.0586,-0.06,-0.0619,-0.0616,-0.0625,-0.0619,-0.0606,-0.0606,-0.0634,-0.0632,-0.0616,-0.0669,-0.0641,-0.0646,-0.0674,-0.0682,-0.0688,-0.0678,-0.0589,0,0,0,0,0,-0.0526,-0.0547,-0.0565,-0.0592,-0.0604,-0.0615,-0.0629,-0.0628,-0.0637,-0.0638,-0.0642,-0.0645,-0.0655,-0.0663,-0.0674,-0.0714,-0.0674,-0.0734,-0.074,-0.0745,-0.0742,-0.0701,-0.0702,-0.069,-0.069,-0.069,0,0,-0.054,-0.0552,-0.0566,-0.0595,-0.0611,-0.0641,-0.0618,-0.0647,-0.0666,-0.0642,-0.0672,-0.0672,-0.067,-0.07,-0.0714,-0.07,-0.0728,-0.0749,-0.0753,-0.0746,-0.0704,-0.0704,-0.0705,-0.0692,-0.0691,-0.0691,0,0,-0.0575,-0.0586,-0.0613,-0.0631,-0.0658,-0.0669,-0.068,-0.0703,-0.0703,-0.0742,-0.0717,-0.0725,-0.0764,-0.0751,-0.0752,-0.0803,-0.0761,-0.0817,-0.0844,-0.0805,-0.0805,-0.0805,-0.0751,-0.0746,-0.0821,-0.0821,-0.0822,0,-0.0589,-0.0619,-0.0628,-0.0657,-0.0674,-0.0683,-0.0714,-0.073,-0.0756,-0.0753,-0.0758,-0.0782,-0.0784,-0.0793,-0.0809,-0.0816,-0.0781,-0.0816,-0.0811,-0.081,-0.0808,-0.0754,-0.0747,-0.0824,-0.0824,-0.0824,-0.0823,0,-0.0638,-0.0664,-0.0684,-0.0719,-0.0742,-0.0773,-0.0791,-0.0809,-0.082,-0.0825,-0.0843,-0.0848,-0.0849,-0.0864,-0.0858,-0.0856,-0.0829,-0.0821,-0.0788,-0.0812,-0.0753,-0.0745,-0.0828,-0.0827,-0.0826,-0.0826,0,0,-0.0659,-0.0707,-0.0714,-0.0727,-0.0771,-0.079,-0.0827,-0.0846,-0.0845,-0.0884,-0.0882,-0.0915,-0.0903,-0.0902,-0.0894,-0.0875,-0.0841,-0.0853,-0.085,-0.0791,-0.0742,-0.0674,-0.0658,-0.0831,-0.083,-0.0829,-0.0702,0,-0.0691,-0.0742,-0.0761,-0.0809,-0.0834,-0.0845,-0.0871,-0.0887,-0.0896,-0.0899,-0.09,-0.0905,-0.0921,-0.0918,-0.0907,-0.0855,-0.0823,-0.0876,-0.0734,-0.0729,-0.0659,-0.0648,-0.0826,-0.0696,-0.0694,-0.0692,-0.0691,0,-0.0726,-0.075,-0.0803,-0.0827,-0.0837,-0.0872,-0.0882,-0.0903,-0.0905,-0.0906,-0.0913,-0.0907,-0.0898,-0.0904,-0.0832,-0.0865,-0.0809,-0.077,-0.0763,-0.0675,-0.0646,-0.0668,-0.0675,-0.0677,-0.0678,-0.0679,-0.068,0,-0.0723,-0.0772,-0.0808,-0.0823,-0.0864,-0.0879,-0.0897,-0.0907,-0.0901,-0.0902,-0.089,-0.0887,-0.0869,-0.0824,-0.0762,-0.0791,-0.0659,-0.068,-0.0561,-0.0555,-0.0631,-0.0633,-0.0609,-0.0609,-0.0609,-0.061,-0.061,0,-0.0737,-0.0763,-0.0809,-0.083,-0.0851,-0.0879,-0.0889,-0.0898,-0.0895,-0.0881,-0.0889,-0.0866,-0.0848,-0.078,-0.0736,-0.0611,-0.0629,-0.055,-0.0515,-0.0656,-0.0662,-0.0624,-0.0627,-0.0605,-0.0606,-0.0607,-0.0608,0,-0.073,-0.0766,-0.0801,-0.0844,-0.0857,-0.0871,-0.0888,-0.0883,-0.088,-0.086,-0.0859,-0.0829,-0.0742,-0.0689,-0.0589,-0.055,-0.0453,-0.0397,-0.0527,-0.0504,-0.0384,-0.0392,-0.0262,-0.0259,-0.0256,-0.0253,-0.0251,0,-0.0727,-0.0751,-0.0806,-0.0823,-0.0848,-0.0867,-0.0878,-0.0883,-0.0873,-0.0832,-0.0815,-0.0732,-0.0705,-0.0498,-0.0462,-0.0334,-0.0326,-0.0271,-0.0363,-0.0368,-0.0347,-0.036,-0.0372,-0.0247,-0.0246,-0.0245,-0.0244,0,-0.071,-0.0741,-0.0766,-0.081,-0.0834,-0.0844,-0.086,-0.0843,-0.0836,-0.083,-0.0742,-0.066,-0.0543,-0.0455,-0.0334,-0.0262,-0.0316,-0.0241,-0.0248,-0.0334,-0.0348,-0.0333,-0.0348,-0.0234,-0.0235,-0.0236,-0.0237,0,-0.0689,-0.0699,-0.0745,-0.0774,-0.081,-0.0822,-0.0827,-0.0801,-0.0779,-0.0738,-0.0705,-0.0605,-0.0562,-0.0411,-0.0312,-0.0218,-0.0222,-0.0222,-0.0231,-0.0241,-0.0288,-0.0305,-0.0131,0,0,0,0,0,-0.0657,-0.067,-0.0702,-0.0737,-0.078,-0.0803,-0.0814,-0.0814,-0.0803,-0.0728,-0.0711,-0.0602,-0.0442,-0.0384,-0.0273,-0.0282,-0.0222,-0.0152,-0.023,-0.0177,-0.0189,-0.0243,0,0,0,0,0,0,-0.0634,-0.0663,-0.0685,-0.0708,-0.0733,-0.0766,-0.0777,-0.0772,-0.0723,-0.0703,-0.0613,-0.0575,-0.0421,-0.0499,-0.027,-0.0244,-0.0279,-0.0084,-0.0081,-0.017,-0.0181,-0.0191,-0.0251,0,0,0,0,0]}]]